www.pogodaiklimat.ru

Погода и климат >> Архив погоды >> Сербия >> Vrsac


ПОГОДА в Vrsac

  • Прогноз погоды в Vrsac
  • Монитор погоды в Vrsac
  • Климат города

АРХИВ ПОГОДЫ в Vrsac

Время (UTC), дата Ветер
(напр.,м/с)
 
Видим.   Явления Облачность Т
(С)
Тd
(С)
f
(%)
Тe
(С)
Тes
(С)
Комфортность P
(гПа)
Po
(гПа)
Тmin
(С)
Tmax
(С)
R
(мм)
R24
(мм)
S
(см)
13 11.08 ЮВ 2 30 км 8/3 1200 м
[Cu hum Ci fib]
+29.4 +12.8 36 +31 +38 жарко 1018.7 1009.1
14 11.08 В 3 30 км 5/3 1200 м
[Cu hum Ci fib]
+29.6 +13.0 36 +31 +35 жарко 1018.4 1008.9
15 11.08 ЮВ 2 30 км 5/1 1500 м
[Cu hum Ci fib]
+29.2 +13.1 37 +31 +34 жарко 1018.7 1008.9
16 11.08 ЮВ 4 30 км 4/0
[Ci fib]
+27.9 +13.1 40 +30 +31 жарко 1018.3 1008.7
17 11.08 ЮВ 5 25 км 4/0
[Ci fib]
+26.9 +13.6 44 +29 +29 жарко 1018.1 1008.5
18 11.08 ЮВ 5 25 км 8/0
[Cs]
+26.2 +13.3 45 +28 +28 жарко 1018.6 1008.8 +31.0
19 11.08 ЮВ 6 25 км 8/0
[Cs]
+25.9 +12.3 43 +27 +27 жарко 1019.0 1009.1
20 11.08 ЮВ 5 20 км 8/0
[Cs]
+25.2 +11.8 43 +27 +27 жарко 1019.1 1009.2
21 11.08 ЮВ 4 20 км 4/0
[Ci fib]
+24.2 +11.5 45 +26 +26 жарко 1019.4 1009.5
22 11.08 штиль 0 20 км ясно +21.4 +12.3 56 +24 +24 комфорт 1019.5 1009.5
23 11.08 штиль 0 20 км ясно +21.4 +12.1 55 +24 +24 комфорт 1019.3 1009.3
00 12.08 штиль 0 20 км ясно +22.1 +11.8 52 +24 +24 комфорт 1019.3 1009.3
01 12.08 З 1 20 км ясно +20.2 +12.0 59 +23 +23 комфорт 1019.3 1009.2
02 12.08 СЗ 1 20 км ясно +18.6 +11.9 65 +20 +20 1019.2 1009.0
03 12.08 СВ 1 20 км 1/0
[Ac trans]
+16.7 +13.0 79 +18 +18 1020.2 1010.0
04 12.08 СВ 2 25 км 1/0
[Ac trans]
+15.2 +12.9 86 +15 +15 1020.1 1009.9
05 12.08 штиль 0 25 км 1/0
[Ci fib]
+18.6 +14.1 75 +19 +21 1020.1 1010.0
06 12.08 В 1 20 км 1/0
[Ci fib]
+22.6 +14.2 59 +26 +30 жарко 1019.9 1010.0 +14.9
07 12.08 Ю 1 20 км ясно +24.8 +13.8 50 +27 +36 жарко 1019.7 1009.8
08 12.08 Ю 1 20 км ясно +26.8 +13.1 43 +29 +42 жарко 1019.6 1009.7
09 12.08 З 1 20 км ясно +28.0 +12.1 37 +29 +46 жарко 1019.7 1009.9
10 12.08 ЮВ 2 20 км ясно +29.5 +13.6 38 +31 +47 жарко 1019.4 1009.6
11 12.08 С 1 20 км 1/1 800 м
[Cu hum Ci fib]
+30.1 +13.3 36 +32 +49 жарко 1018.8 1009.1
12 12.08 В 1 20 км 3/3 900 м
[Cu hum]
+31.5 +13.9 34 +33 +45 жарко 1018.3 1008.7
13 12.08 С 3 20 км 3/3 900 м
[Cu hum]
+30.2 +13.4 36 +32 +38 жарко 1017.8 1008.1
14 12.08 В 1 20 км 3/3 1000 м
[Cu hum]
+31.5 +13.2 33 +33 +39 жарко 1017.1 1007.5
15 12.08 С 1 20 км 1/1 1200 м
[Cu hum]
+31.4 +12.9 32 +32 +37 жарко 1016.7 1007.0
16 12.08 С 1 20 км 1/1 1200 м
[Cu hum]
+31.3 +13.1 33 +32 +34 жарко 1016.2 1006.5
17 12.08 СВ 1 20 км 1/1 1500 м
[Sc]
+29.7 +15.0 41 +32 +32 душно 1016.0 1006.3
18 12.08 штиль 0 20 км 1/0
[Ci fib]
+26.0 +15.7 53 +29 +29 душно 1015.9 1006.3 +32.3
19 12.08 штиль 0 20 км 1/0
[Ci fib]
+23.7 +15.3 59 +27 +27 жарко 1016.4 1006.7
20 12.08 штиль 0 20 км ясно +22.3 +15.2 64 +26 +26 жарко 1016.6 1006.8
21 12.08 СВ 2 20 км ясно +20.3 +15.4 73 +24 +24 комфорт 1016.6 1006.6
22 12.08 штиль 0 20 км ясно +19.3 +15.8 80 +21 +21 комфорт 1016.6 1006.5
23 12.08 СВ 1 20 км ясно +19.0 +15.5 80 +21 +21 комфорт 1016.3 1006.2
00 13.08 штиль 0 20 км ясно +21.5 +15.7 70 +25 +25 комфорт 1016.0 1006.0
01 13.08 штиль 0 20 км ясно +22.5 +15.7 65 +26 +26 жарко 1015.7 1005.7
02 13.08 ЮВ 4 20 км ясно +22.1 +15.0 64 +26 +26 душно 1015.5 1005.5
03 13.08 ЮВ 5 20 км ясно +24.4 +13.8 52 +27 +27 жарко 1015.2 1005.3
04 13.08 ЮВ 6 20 км ясно +24.6 +13.2 49 +27 +27 жарко 1015.0 1005.3
05 13.08 ЮВ 7 20 км ясно +25.2 +12.8 46 +27 +27 жарко 1014.9 1005.2
06 13.08 ЮВ 6 20 км ясно +26.4 +12.6 42 +28 +29 жарко 1015.1 1005.3 +16.9
07 13.08 ЮВ 7 20 км ясно +27.7 +12.5 39 +29 +31 жарко 1015.0 1005.2
08 13.08 ЮВ 9 20 км 1/0
[Ci fib]
+29.0 +12.4 36 +30 +31 жарко 1014.7 1005.0
09 13.08 ЮВ 10
{14}
20 км 1/0
[Ci fib]
+30.1 +12.2 33 +31 +31 жарко 1014.7 1005.0
10 13.08 Ю 9 20 км 1/0
[Ci fib]
+30.7 +11.9 32 +31 +33 жарко 1014.4 1004.8
11 13.08 ЮВ 7 20 км ясно +31.5 +10.9 28 +31 +36 жарко 1014.2 1004.5
12 13.08 Ю 7-13
{16}
20 км ясно +31.6 +10.9 28 +32 +36 жарко 1013.7 1004.1
13 13.08 Ю 6 20 км ясно +32.0 +10.5 27 +32 +36 жарко 1013.3 1003.7
14 13.08 ЮВ 5 20 км ясно +31.9 +10.4 27 +32 +36 жарко 1012.8 1003.2
15 13.08 Ю 6-11
{14}
20 км ясно +31.4 +11.3 29 +32 +33 жарко 1012.2 1002.6
16 13.08 ЮВ 5 20 км ясно +30.6 +10.9 30 +31 +32 жарко 1012.0 1002.3
17 13.08 ЮВ 6 20 км ясно +29.5 +10.7 31 +30 +30 жарко 1011.6 1001.9
18 13.08 ЮВ 8-13
{13}
20 км ясно +28.4 +11.6 35 +29 +29 жарко 1011.4 1001.7 +32.5
19 13.08 ЮВ 7 20 км ясно +27.9 +12.0 37 +29 +29 жарко 1011.7 1001.9
20 13.08 ЮВ 7 20 км ясно +27.6 +11.9 38 +29 +29 жарко 1011.7 1002.0
21 13.08 ЮВ 9-15
{17}
20 км ясно +27.6 +12.4 39 +29 +29 жарко 1011.7 1002.0
22 13.08 ЮВ 9 20 км ясно +27.3 +11.8 38 +28 +28 жарко 1011.9 1002.2
23 13.08 ЮВ 10 20 км ясно +26.8 +11.3 38 +28 +28 жарко 1012.0 1002.3
00 14.08 ЮВ 10
{16}
20 км ясно +26.5 +11.0 38 +27 +27 жарко 1011.7 1001.9
01 14.08 ЮВ 10 20 км ясно +26.3 +10.7 38 +27 +27 жарко 1011.6 1001.8
02 14.08 ЮВ 11 20 км ясно +26.3 +10.1 36 +27 +27 жарко 1011.1 1001.3
03 14.08 ЮВ 11 20 км ясно +26.0 +10.2 37 +27 +27 жарко 1011.1 1001.3
04 14.08 ЮВ 11 20 км 3/0
[Ac trans]
+25.7 +10.3 38 +27 +27 жарко 1011.1 1001.3
05 14.08 ЮВ 12 20 км 5/0
[Ac trans]
+26.3 +10.9 38 +27 +27 жарко 1011.5 1001.7
06 14.08 ЮВ 10 20 км 8/4 1200 м
[Cu med, cong Ac trans]
+25.9 +11.7 41 +27 +27 жарко 1012.0 1002.2 +25.3
07 14.08 Ю 3 20 км 5/3 1200 м
[Cu med, cong Ac trans]
+27.2 +14.6 46 +30 +33 душно 1012.7 1003.0
08 14.08 Ю 7 20 км 9/4 1200 м
[Cu med, cong Ac und]
+28.3 +14.1 42 +30 +31 жарко 1012.8 1003.0
09 14.08 Ю 8
{16}
20 км 8/3 1200 м
[Cu med, cong Ac trans Ci fib]
+29.8 +12.9 35 +31 +32 жарко 1012.4 1002.7
10 14.08 Ю 7 20 км 6/1 1200 м
[Cu hum Ac trans Ci fib]
+30.7 +12.9 34 +32 +35 жарко 1012.1 1002.4
11 14.08 ЮВ 6 20 км 6/1 1300 м
[Cu hum Ac trans Ci fib]
+31.5 +12.4 31 +32 +36 жарко 1011.7 1002.1
12 14.08 ЮВ 5
{12}
20 км 4/0
[Ac trans Ci fib]
+32.4 +12.4 30 +33 +39 жарко 1011.3 1001.7
13 14.08 ЮВ 5 25 км 4/0
[Ac trans Ci fib]
+32.8 +13.2 30 +33 +39 жарко 1010.8 1001.2
14 14.08 Ю 5 20 км 3/0
[Ci fib]
+32.6 +13.5 31 +34 +37 очень
жарко
1010.6 1001.0
15 14.08 Ю 6
{11}
25 км 3/0
[Ci fib]
+32.0 +13.9 33 +33 +35 жарко 1010.4 1000.8
16 14.08 ЮВ 5 25 км 3/0
[Ci fib]
+31.1 +13.9 35 +33 +33 душно 1010.3 1000.7
17 14.08 ЮВ 6 25 км 3/0
[Ci fib]
+29.9 +14.3 39 +32 +32 жарко 1010.7 1001.1
18 14.08 ЮВ 6-12
{13}
20 км 3/0
[Ci fib]
+28.7 +13.9 40 +31 +31 жарко 1010.6 1000.9 +33.4
19 14.08 ЮВ 8 15 км ясно +28.4 +12.7 38 +30 +30 жарко 1011.2 1001.5
20 14.08 ЮВ 8 15 км 8/0
[Ac und]
+27.9 +12.5 39 +29 +29 жарко 1011.7 1001.9
21 14.08 З 2
{13}
15 км 10/0
[As op]
+25.3 +14.6 52 +28 +28 жарко 1013.4 1003.6
22 14.08 Ю 1 15 км 8/0
[Ac trans]
+21.7 +17.4 77 +26 +26 душно 1013.8 1003.8
23 14.08 ЮЗ 1 15 км 6/0
[Ac trans]
+20.3 +16.5 79 +24 +24 комфорт 1014.3 1004.3
00 15.08 В 2 15 км 4/0
[Ac trans]
+19.3 +16.7 85 +22 +22 комфорт 1014.0 1003.9
01 15.08 СВ 3 15 км 9/0
[Ac As]
+19.4 +17.0 86 +22 +22 комфорт 1013.2 1003.2
02 15.08 ЮЗ 2 15 км 10/0
[Ac As]
+19.6 +17.1 85 +22 +22 комфорт 1014.1 1004.1
03 15.08 штиль 0 15 км 8/0
[Ac trans]
+19.7 +16.9 84 +22 +22 комфорт 1014.1 1004.1
04 15.08 штиль 0 15 км 8/0
[Ac trans]
+20.2 +16.8 81 +23 +23 комфорт 1014.7 1004.8
05 15.08 штиль 0 20 км 8/0
[Ac trans]
+20.1 +17.1 83 +23 +24 комфорт 1015.3 1005.3
06 15.08 штиль 0 20 км 8/8 1200 м
[Sc]
+21.1 +17.4 79 +25 +26 комфорт 1015.4 1005.4 +18.8
07 15.08 штиль 0 20 км 8/3 900 м
[Sc Ac trans]
+22.1 +17.3 74 +27 +31 душно 1015.4 1005.5
08 15.08 штиль 0 20 км 8/0
[Ac trans]
+23.6 +17.3 68 +27 +35 жарко 1015.5 1005.6
09 15.08 штиль 0 20 км 8/0
[Ac trans]
+24.4 +16.7 62 +28 +38 душно 1015.7 1005.8
10 15.08 З 1 20 км 6/0
[Ac trans]
+26.8 +16.0 52 +30 +42 душно 1015.4 1005.6
11 15.08 ЮЗ 1 20 км 4/0
[Ac trans]
+28.0 +17.0 51 +32 +46 душно 1015.1 1005.4
12 15.08 штиль 0 20 км 3/3 1000 м
[Cu med, cong]
+28.6 +16.4 48 +32 +46 душно 1014.6 1004.9
13 15.08 ЮЗ 1 20 км 4/4 1000 м
[Cu med, cong]
+29.8 +16.1 44 +33 +41 душно 1014.1 1004.4
14 15.08 СЗ 1 20 км 4/4 1000 м
[Cu med, cong]
+29.9 +15.1 41 +32 +38 жарко 1013.8 1004.1
15 15.08 СЗ 4 20 км 4/4 1000 м
[Cu med, cong]
+29.8 +16.1 44 +33 +35 душно 1013.5 1003.8
16 15.08 СЗ 2 20 км 4/4 1000 м
[Cu med, cong]
+27.9 +16.3 49 +31 +32 душно 1013.7 1004.0
17 15.08 СЗ 1 20 км 4/4 1000 м
[Cu med, cong]
+28.0 +16.8 51 +32 +32 душно 1014.0 1004.3
18 15.08 СЗ 2 20 км 9/5 1000 м
[Cu med, cong Ac trans Ci fib]
+26.8 +16.1 52 +30 +30 душно 1014.5 1004.7 +30.8
19 15.08 СВ 3 20 км 6/0
[Ac trans Ci fib]
+23.3 +16.7 66 +28 +28 душно 1015.2 1005.3
20 15.08 С 1 20 км 4/0
[Ac trans Ci fib]
+22.1 +16.4 70 +26 +26 душно 1015.2 1005.2
21 15.08 штиль 0 20 км 3/0
[Ac trans Ci fib]
+20.2 +16.3 78 +23 +23 комфорт 1015.1 1005.1
22 15.08 штиль 0 15 км ясно +19.3 +16.3 83 +21 +21 комфорт 1015.2 1005.2
23 15.08 штиль 0 15 км ясно +17.8 +16.1 90 +18 +18 1015.3 1005.2
00 16.08 ЮЗ 2 15 км ясно +18.4 +15.9 85 +20 +20 1015.2 1005.1
01 16.08 ЮЗ 2 15 км ясно +17.9 +16.0 89 +18 +18 1015.1 1005.0
02 16.08 ЮЗ 2 15 км ясно +17.6 +16.0 90 +18 +18 1015.2 1005.1
03 16.08 ЮЗ 1 15 км 1/0
[Ac trans]
+17.6 +16.7 94 +19 +19 1015.3 1005.2
04 16.08 ЮЗ 2 15 км 3/0
[Ac trans Ci fib]
+17.4 +16.6 95 +18 +18 1015.7 1005.6
05 16.08 ЮЗ 1 8000 м дымка 1/1 90 м
[St]
+18.2 +17.3 94 +20 +21 1015.8 1005.7
06 16.08 ЮЗ 2 6000 м дымка ясно +20.6 +17.9 85 +25 +29 комфорт 1015.6 1005.8 +16.7
07 16.08 ЮЗ 2 10 км ясно +22.9 +18.3 75 +29 +36 очень
душно
1015.8 1006.0
08 16.08 ЮЗ 1 15 км ясно +25.1 +18.3 66 +30 +42 душно 1015.8 1006.1
09 16.08 штиль 0 20 км 1/1 1000 м
[Cu hum]
+27.4 +18.2 57 +32 +49 очень
душно
1015.4 1005.8
10 16.08 СЗ 2 20 км 4/4 900 м
[Cu hum]
+28.7 +17.6 51 +33 +42 очень
душно
1015.2 1005.6
11 16.08 С 2 20 км 5/5 900 м
[Cu hum]
+28.9 +17.2 49 +33 +41 очень
душно
1014.8 1005.2
12 16.08 СВ 2 20 км 6/6 900 м
[Cu med, cong]
+29.1 +16.6 47 +33 +38 очень
душно
1014.4 1004.8
13 16.08 СЗ 3 20 км гроза без осадков 8/8 800 м
[Cb cap]
+29.4 +17.4 48 +33 +35 душно 1014.2 1004.5
14 16.08 З 4 20 км гроза без осадков 8/8 800 м
[Cb cap]
+26.3 +17.7 59 +31 +32 душно 1014.4 1004.6
15 16.08 З 3 20 км в посл. час гроза 6/6 800 м
[Cu med, cong]
+25.2 +17.7 63 +29 +31 душно 1014.5 1004.7
16 16.08 СВ 1 20 км 6/5 800 м
[Cu med, cong Ci fib]
+25.2 +16.8 60 +29 +30 душно 1014.4 1004.6
17 16.08 СВ 2 20 км 6/3 1000 м
[Cu med, cong Ci fib]
+23.9 +16.9 65 +28 +28 душно 1014.4 1004.7
18 16.08 СВ 2 20 км 5/0
[Ci fib]
+22.0 +16.8 72 +26 +26 душно 1015.1 1005.1 +30.7
19 16.08 СВ 3 20 км 5/0
[Ci fib]
+21.4 +16.4 73 +25 +25 комфорт 1015.1 1005.1
20 16.08 штиль 0 20 км 5/0
[Ci fib]
+20.8 +15.8 73 +24 +24 комфорт 1014.8 1004.8
21 16.08 СЗ 1 20 км ясно +20.2 +16.1 77 +24 +24 комфорт 1015.0 1005.0
22 16.08 ЮВ 1 20 км ясно +16.5 +14.6 89 +17 +17 1015.4 1005.3
23 16.08 СВ 1 20 км ясно +16.6 +15.3 92 +17 +17 1015.1 1004.9
00 17.08 штиль 0 20 км ясно +15.4 +14.4 94 +15 +15 1015.2 1005.0
01 17.08 штиль 0 20 км ясно +17.1 +15.8 92 +17 +17 1015.4 1005.3
02 17.08 штиль 0 10 км ясно +15.4 +14.7 96 +15 +15 1015.2 1005.1
04 17.08 штиль 0 10 км ясно +15.4 +14.5 94 +15 +15 1015.5 1005.4
05 17.08 штиль 0 7000 м дымка 3/0
[Ci fib]
+17.5 +15.8 90 +17 +19 1015.7 1005.5
06 17.08 СВ 1 15 км 3/0
[Ci fib]
+21.2 +17.2 78 +25 +29 комфорт 1015.8 1005.9 +14.4
07 17.08 штиль 0 20 км 3/0
[Ci fib]
+24.3 +17.9 67 +28 +37 душно 1015.9 1006.1
08 17.08 штиль 0 20 км 3/0
[Ci fib]
+26.8 +18.0 59 +31 +45 душно 1015.9 1006.1
09 17.08 штиль 0 20 км 3/0
[Ci fib]
+28.7 +16.3 47 +32 +49 душно 1015.7 1006.0
10 17.08 штиль 0 20 км 1/1 900 м
[Cu hum]
+30.7 +14.4 37 +33 +51 опасность
солнечного
удара
1015.2 1005.5
11 17.08 З 1 20 км 4/4 900 м
[Cu med, cong]
+31.1 +13.9 35 +33 +44 душно 1014.9 1005.2
12 17.08 20 км н/о +30.6 +14.5 38 +33 +41 душно 1014.4 1004.8
13 17.08 СВ 3 20 км 6/6 800 м
[Cu med, cong]
+30.8 +14.5 37 +33 +36 душно 1014.0 1004.4
14 17.08 ЮВ 2 20 км 5/5 1000 м
[Cu med, cong]
+31.4 +14.4 36 +33 +37 жарко 1013.6 1004.0
15 17.08 СВ 2 20 км 4/3 1200 м
[Cu hum Ci fib]
+29.0 +16.4 47 +32 +35 душно 1013.5 1003.8
16 17.08 В 2 20 км 4/3 1200 м
[Cu hum Ci fib]
+28.5 +16.0 47 +32 +33 душно 1013.5 1003.8
17 17.08 СВ 1 20 км 4/1 1200 м
[Cu hum Ci fib]
+27.3 +15.8 49 +30 +30 душно 1013.6 1003.8
18 17.08 штиль 0 20 км 3/0
[Ac trans Ci fib]
+24.0 +16.3 62 +27 +27 жарко 1014.2 1004.5 +32.7
19 17.08 С 1 20 км 1/0
[Ci fib]
+24.5 +15.7 58 +28 +28 душно 1014.5 1004.9
20 17.08 штиль 0 15 км ясно +19.2 +15.7 80 +21 +21 комфорт 1015.0 1005.0
21 17.08 ЮЗ 1 15 км ясно +19.0 +15.5 80 +21 +21 комфорт 1015.0 1005.2
22 17.08 штиль 0 10 км ясно +18.2 +15.5 84 +18 +18 1015.2 1005.3
23 17.08 штиль 0 10 км ясно +17.5 +15.0 85 +17 +17 1015.5 1005.4
00 18.08 штиль 0 10 км ясно +16.3 +14.7 90 +16 +16 1015.6 1005.5
01 18.08 штиль 0 10 км ясно +16.1 +14.7 91 +16 +16 1015.8 1005.6
02 18.08 СВ 1 10 км ясно +15.3 +14.1 93 +16 +16 1016.1 1005.9
03 18.08 штиль 0 10 км ясно +14.6 +13.4 93 +14 +14 1016.4 1006.2
04 18.08 штиль 0 10 км ясно +14.7 +13.8 94 +14 +14 1016.6 1006.6
05 18.08 штиль 0 10 км ясно +17.4 +15.2 87 +17 +19 1016.7 1006.8
06 18.08 В 1 15 км ясно +21.8 +16.9 74 +26 +30 душно 1017.1 1007.1 +14.1
07 18.08 штиль 0 15 км ясно +26.1 +16.7 56 +30 +39 душно 1016.9 1007.0
08 18.08 СЗ 1 15 км ясно +28.6 +16.4 48 +32 +44 душно 1017.3 1007.5
09 18.08 СВ 1 20 км ясно +29.9 +16.0 43 +33 +49 душно 1017.0 1007.3
10 18.08 СВ 3 20 км 1/1 1000 м
[Cu hum]
+31.1 +14.7 37 +33 +45 душно 1016.8 1007.2
11 18.08 С 2 20 км 1/1 1000 м
[Cu hum]
+31.8 +14.4 35 +34 +47 душно 1016.4 1006.8
12 18.08 С 2 20 км 1/1 1080 м
[Cu hum]
+32.6 +12.4 29 +33 +45 жарко 1016.0 1006.4
13 18.08 СВ 4 20 км 3/1 1200 м
[Cu hum Ac trans]
+33.0 +13.2 30 +34 +40 очень
жарко
1015.6 1006.0

 

Местоположение метеостанции Vrsac (Сербия): широта 45.15 долгота 21.32 высота над уровнем моря 85 м.

В архиве по умолчанию представлена погода в Vrsac за последнюю неделю. Архивные данные за месяц целиком и за предыдущие месяцы, начиная с января 2011 года, Вы можете получить, выбрав интересующий диапазон дат из раскрывающегося списка и нажав кнопку "Ввод!".


*Определитесь, кто Вы:
робот инопланетянин человек

Внимание! Время в таблицах - всемирное. Для получения местного времени необходимо прибавить поправку, которая в Vrsac равна 1 ч.

Смотрите также архив погоды в соседних городах и на ближайших метеорологических станциях:

Погода в Banatski Karlovac (Сербия) (25 км)
Погода в Banloc (Румыния) (30 км)
Погода в Oravita (Румыния) (31 км)
Погода в Veliko Gradiste (Сербия) (47 км)
Погода в Resita (Румыния) (50 км)
Погода в Moldova Veche (Румыния) (54 км)
Погода в Semenic (Румыния) (57 км)
Погода в Bozovici (Румыния) (59 км)
Погода в Timisoara (Румыния) (69 км)
Погода в Zrenjanin (Сербия) (75 км)

Пояснения к столбцам:

Ветер - указаны скорость ветра в м/с - средняя за 10 мин, порывы в срок и между сроками (в фигурных скобках) и направление, откуда дует ветер: С - северный, СВ - северо-восточный, В - восточный, ЮВ - юго-восточный, Ю - южный, ЮЗ - юго-западный, З - западный, СЗ - северо-западный.
Видимость - горизонтальная дальность видимости в метрах или километрах. При видимости от 1 до 10 км при отсутствии осадков обычно наблюдается дымка, при ухудшении видимости до 1 км и менее - туман. В сухую погоду видимость может ухудшаться дымом, пылью или мглою.
Явления - указаны атмосферные явления, наблюдавшиеся в срок или в последний час перед сроком; фигурными скобками обозначены явления, наблюдавшиеся между сроками (за 1-3 часа до срока); квадратными скобками обозначены град или гололедные отложения с указанием их диаметра в мм.
Облачность - указаны через наклонную черту общая и нижняя облачность в баллах и высота нижней границы облаков в метрах; квадратными скобками обозначены формы облаков: Ci - перистые, Cs - перисто-слоистые, Cc - перисто-кучевые, Ac - высококучевые, As - высокослоистые, Sc - слоисто-кучевые, Ns - слоисто-дождевые, Cu - кучевые, Cb - кучево-дождевые. Подробнее классификацию облаков см. в Атласе облаков (PDF).
T - Температура воздуха - температура, измеренная на высоте 2 м над землей.
Td - Температура точки росы - температура, при понижении до которой содержащийся в воздухе водяной пар достигнет насыщения.
f - Относительная влажность воздуха - влажноcть воздуха, измеренная на высоте 2 м над землей.
Te - Эффективная температура - температура, которую ощущает одетый по сезону человек в тени. Характеристика душности погоды. При расчете учитывается влияние влажности воздуха и скорости ветра на теплоощущения человека.
Tes - Эффективная температура на солнце - температура, которую ощущает человек, с поправкой на солнечный нагрев. Характеристика знойности погоды. Зависит от высоты солнца над горизонтом, облачности и скорости ветра. Ночью, в пасмурную погоду, а также при ветре 12 м/с и более поправка равна нулю.
P - Атмосферное давление - приведенное к уровню моря атмосферное давление.
Po - Атмосферное давление - измеренное на уровне метеостанции атмосферное давление.
Tmin - Минимальная температура - минимум температуры воздуха на высоте 2 м над землей.
Tmax - Максимальная температура - максимум температуры воздуха на высоте 2 м над землей.
R - Количество осадков - Количество выпавших осадков за период времени, мм. При наведении курсора мыши на число - период времени, за который выпало указанное количество осадков.
R24 - Количество осадков - Количество выпавших осадков за 24 часа, мм.
S - Снежный покров - Высота снежного покрова, см. При наведении курсора мыши на число - состояние снежного покрова и степень покрытия местности в баллах.